Location: Gorlice
(49.6633°N, 21.1693°E)
Time: 06:08:21
(UTC+02:00)

ISS - Pass Details

Date: 28 January 2019
Orbit: 411 x 421 km, 51.6° (Epoch: 19 October)

Event Time Altitude Azimuth Distance (km) Brightness Sun altitude
Rises 17:35:41 0° 253° (WSW) 2,409 2.3 -11.7°
Reaches altitude 10° 17:37:47 10° 254° (WSW) 1,545 0.7 -12.1°
Maximum altitude 17:41:16 86° 345° (NNW) 445 -3.7 -12.6°
Enters shadow 17:43:20 23° 72° (ENE) 983 -2.5 -13.0°
